Location: Zlin
(49.2330°N, 17.6670°E)
Time: 23:16:23
(UTC+01:00)

ISS - Visible Passes

Search period start: 23 November 2014 00:00
Search period end: 03 December 2014 00:00
Orbit: 408 x 417 km, 51.6° (Epoch: 23 November)

Date Brightness Start Highest point End Pass type
(mag) Time Alt. Az. Time Alt. Az. Time Alt. Az.
23 Nov -3.4 05:08:20 77° N 05:08:26 78° NNE 05:11:45 10° ESE visible
24 Nov -0.7 04:20:42 21° E 04:20:42 21° E 04:21:58 10° E visible
24 Nov -2.6 05:53:32 22° W 05:55:17 42° SSW 05:58:25 10° SE visible
25 Nov -3.0 05:05:52 59° S 05:05:52 59° S 05:08:51 10° SE visible
26 Nov -0.4 04:18:13 17° ESE 04:18:13 17° ESE 04:19:06 10° ESE visible
26 Nov -1.6 05:51:03 18° WSW 05:52:06 21° SW 05:54:40 10° SSE visible
27 Nov -1.7 05:03:24 26° S 05:03:24 26° S 05:05:22 10° SSE visible
